| time (UTC) | temp F | wind direction | speed MPH | gust MPH | rain 1hr in | rain 24hr in | rain mn in | humidity % | barometer mb |
| 20260904231519 | 72 | 51 | 0.0 | 0.0 | 0.00 | 0.00 | 0.00 | 100 | 1013.6 |
| 20260904230015 | 72 | 51 | 0.0 | 1.0 | 0.00 | 0.00 | 0.00 | 100 | 1013.4 |
| 20260904224509 | 73 | 84 | 1.0 | 5.0 | 0.00 | 0.00 | 0.00 | 100 | 1013.3 |
| 20260904223006 | 73 | 360 | 0.0 | 5.0 | 0.00 | 0.00 | 0.00 | 100 | 1013.2 |
| 20260904221501 | 74 | 346 | 2.0 | 5.0 | 0.00 | 0.00 | 0.00 | 100 | 1012.9 |
| 20260904220058 | 74 | 360 | 1.0 | 3.0 | 0.00 | 0.00 | 0.00 | 100 | 1012.5 |
| 20260904214554 | 74 | 21 | 1.0 | 5.0 | 0.00 | 0.00 | 0.00 | 100 | 1012.3 |
| 20260904213051 | 74 | 24 | 2.0 | 5.0 | 0.00 | 0.00 | 0.00 | 100 | 1012.1 |
| 20260904211544 | 75 | 55 | 0.0 | 3.0 | 0.00 | 0.00 | 0.00 | 100 | 1012.1 |
| 20260904210040 | 75 | 355 | 1.0 | 4.0 | 0.00 | 0.00 | 0.00 | 100 | 1012.1 |
| 20260904204535 | 74 | 20 | 0.0 | 4.0 | 0.00 | 0.00 | 0.00 | 100 | 1012.2 |
| 20260904203031 | 75 | 115 | 2.0 | 5.0 | 0.00 | 0.00 | 0.00 | 100 | 1012.4 |
| 20260904201538 | 75 | 355 | 0.0 | 4.0 | 0.00 | 0.00 | 0.00 | 100 | 1012.6 |
| 20260904200039 | 75 | 332 | 1.0 | 4.0 | 0.00 | 0.00 | 0.00 | 100 | 1012.7 |
| 20260904194518 | 75 | 206 | 0.0 | 3.0 | 0.00 | 0.00 | 0.00 | 100 | 1012.8 |
| 20260904193013 | 75 | 132 | 0.0 | 2.0 | 0.00 | 0.00 | 0.00 | 100 | 1013.2 |
| 20260904191513 | 74 | 246 | 0.0 | 3.0 | 0.00 | 0.00 | 0.00 | 100 | 1013.5 |
| 20260904190005 | 74 | 300 | 0.0 | 3.0 | 0.00 | 0.00 | 0.00 | 100 | 1013.5 |
| 20260904184606 | 73 | 338 | 1.0 | 4.0 | 0.00 | 0.00 | 0.00 | 100 | 1013.7 |
| 20260904183056 | 73 | 345 | 0.0 | 2.0 | 0.00 | 0.00 | 0.00 | 100 | 1013.9 |
| 20260904181551 | 73 | 355 | 1.0 | 3.0 | 0.00 | 0.00 | 0.00 | 100 | 1014.1 |
| 20260904180046 | 73 | 291 | 0.0 | 3.0 | 0.00 | 0.00 | 0.00 | 100 | 1014.2 |
| 20260904174547 | 73 | 286 | 1.0 | 3.0 | 0.00 | 0.00 | 0.00 | 100 | 1014.5 |
| 20260904173038 | 73 | 298 | 1.0 | 6.0 | 0.00 | 0.00 | 0.00 | 100 | 1014.9 |
| 20260904171603 | 72 | 360 | 2.0 | 5.0 | 0.00 | 0.00 | 0.00 | 100 | 1015.2 |
| 20260904170029 | 72 | 322 | 1.0 | 3.0 | 0.00 | 0.00 | 0.00 | 100 | 1015.3 |
| 20260904164525 | 72 | 288 | 0.0 | 3.0 | 0.00 | 0.00 | 0.00 | 100 | 1015.2 |
| 20260904163038 | 72 | 313 | 1.0 | 5.0 | 0.00 | 0.00 | 0.00 | 100 | 1015.4 |
| 20260904161515 | 72 | 292 | 0.0 | 4.0 | 0.00 | 0.00 | 0.00 | 100 | 1015.5 |
| 20260904160012 | 72 | 301 | 1.0 | 4.0 | 0.00 | 0.00 | 0.00 | 100 | 1015.6 |
| 20260904154508 | 71 | 317 | 0.0 | 4.0 | 0.00 | 0.00 | 0.00 | 100 | 1015.5 |
| 20260904153006 | 71 | 309 | 0.0 | 3.0 | 0.00 | 0.00 | 0.00 | 100 | 1015.6 |
| 20260904151559 | 71 | 290 | 1.0 | 4.0 | 0.00 | 0.00 | 0.00 | 100 | 1015.7 |
| 20260904150055 | 71 | 298 | 1.0 | 4.0 | 0.00 | 0.00 | 0.00 | 100 | 1015.8 |
| 20260904144601 | 71 | 281 | 1.0 | 4.0 | 0.00 | 0.00 | 0.00 | 100 | 1015.7 |
| 20260904143104 | 70 | 261 | 0.0 | 4.0 | 0.00 | 0.00 | 0.00 | 100 | 1015.4 |
| 20260904141542 | 70 | 248 | 0.0 | 0.0 | 0.00 | 0.00 | 0.00 | 100 | 1015.1 |
| 20260904140042 | 70 | 247 | 0.0 | 0.0 | 0.00 | 0.00 | 0.00 | 100 | 1014.8 |
| 20260904134533 | 70 | 247 | 0.0 | 4.0 | 0.00 | 0.00 | 0.00 | 100 | 1014.5 |
| 20260904133028 | 70 | 277 | 1.0 | 5.0 | 0.00 | 0.00 | 0.00 | 100 | 1014.7 |
| 20260904131523 | 70 | 289 | 2.0 | 5.0 | 0.00 | 0.00 | 0.00 | 100 | 1014.6 |
| 20260904130121 | 69 | 254 | 1.0 | 4.0 | 0.00 | 0.00 | 0.00 | 100 | 1014.6 |
| 20260904124516 | 69 | 242 | 1.0 | 3.0 | 0.00 | 0.00 | 0.00 | 100 | 1014.7 |
| 20260904123011 | 69 | 243 | 0.0 | 1.0 | 0.00 | 0.00 | 0.00 | 100 | 1014.8 |
| 20260904121506 | 69 | 243 | 0.0 | 3.0 | 0.00 | 0.00 | 0.00 | 100 | 1014.9 |
| 20260904120001 | 69 | 294 | 0.0 | 0.0 | 0.00 | 0.00 | 0.00 | 100 | 1014.7 |
| 20260904114600 | 68 | 294 | 0.0 | 0.0 | 0.00 | 0.00 | 0.00 | 100 | 1014.9 |
| 20260904113055 | 68 | 300 | 0.0 | 0.0 | 0.00 | 0.00 | 0.00 | 100 | 1015.0 |
| 20260904111548 | 68 | 300 | 0.0 | 0.0 | 0.00 | 0.00 | 0.00 | 100 | 1014.5 |
| 20260904110045 | 67 | 300 | 0.0 | 0.0 | 0.00 | 0.00 | 0.00 | 100 | 1014.2 |
| 20260904104540 | 68 | 300 | 0.0 | 0.0 | 0.00 | 0.00 | 0.00 | 100 | 1014.1 |
| 20260904103105 | 68 | 300 | 0.0 | 0.0 | 0.00 | 0.00 | 0.00 | 100 | 1014.3 |
| 20260904101534 | 67 | 300 | 0.0 | 0.0 | 0.00 | 0.00 | 0.00 | 100 | 1014.2 |
| 20260904100027 | 68 | 300 | 0.0 | 0.0 | 0.00 | 0.00 | 0.00 | 100 | 1014.3 |
| 20260904094522 | 68 | 300 | 0.0 | 0.0 | 0.00 | 0.00 | 0.00 | 100 | 1014.4 |
| 20260904093018 | 68 | 300 | 0.0 | 0.0 | 0.00 | 0.00 | 0.00 | 100 | 1014.3 |
| 20260904091518 | 68 | 300 | 0.0 | 0.0 | 0.00 | 0.00 | 0.00 | 100 | 1014.3 |
| 20260904090018 | 67 | 300 | 0.0 | 0.0 | 0.00 | 0.00 | 0.00 | 100 | 1014.2 |
| 20260904084505 | 67 | 310 | 0.0 | 2.0 | 0.00 | 0.00 | 0.00 | 100 | 1014.1 |
| 20260904083103 | 67 | 317 | 0.0 | 2.0 | 0.00 | 0.00 | 0.00 | 100 | 1014.0 |
| 20260904081556 | 67 | 317 | 0.0 | 0.0 | 0.00 | 0.00 | 0.00 | 100 | 1014.3 |
| 20260904080114 | 66 | 317 | 0.0 | 0.0 | 0.00 | 0.00 | 0.00 | 100 | 1014.1 |
| 20260904074548 | 67 | 317 | 0.0 | 0.0 | 0.00 | 0.00 | 0.00 | 100 | 1014.1 |
| 20260904073043 | 67 | 317 | 0.0 | 0.0 | 0.00 | 0.00 | 0.00 | 100 | 1014.1 |
| 20260904071541 | 67 | 317 | 0.0 | 0.0 | 0.00 | 0.00 | 0.00 | 100 | 1014.3 |
| 20260904070044 | 67 | 317 | 0.0 | 0.0 | 0.00 | 0.00 | 0.00 | 100 | 1014.3 |
| 20260904064530 | 67 | 317 | 0.0 | 0.0 | 0.00 | 0.00 | 0.00 | 100 | 1014.4 |
| 20260904063028 | 68 | 317 | 0.0 | 2.0 | 0.00 | 0.00 | 0.00 | 100 | 1014.6 |
| 20260904061521 | 68 | 317 | 0.0 | 2.0 | 0.00 | 0.00 | 0.00 | 100 | 1014.5 |
| 20260904060018 | 68 | 319 | 0.0 | 2.0 | 0.00 | 0.00 | 0.00 | 100 | 1014.4 |
| 20260904054547 | 68 | 343 | 0.0 | 2.0 | 0.00 | 0.00 | 0.00 | 100 | 1014.2 |
| 20260904053008 | 68 | 58 | 0.0 | 0.0 | 0.00 | 0.00 | 0.00 | 100 | 1014.1 |
| 20260904051502 | 68 | 57 | 0.0 | 0.0 | 0.00 | 0.00 | 0.00 | 100 | 1014.1 |
| 20260904050059 | 68 | 58 | 0.0 | 0.0 | 0.00 | 0.00 | 0.00 | 100 | 1014.2 |
| 20260904044610 | 68 | 58 | 0.0 | 0.0 | 0.00 | 0.00 | 0.00 | 100 | 1014.4 |
| 20260904043057 | 68 | 59 | 0.0 | 0.0 | 0.00 | 0.00 | 0.00 | 100 | 1014.1 |
| 20260904041545 | 68 | 58 | 0.0 | 0.0 | 0.00 | 0.00 | 0.00 | 100 | 1014.1 |
| 20260904040042 | 69 | 60 | 0.0 | 0.0 | 0.00 | 0.00 | 0.00 | 100 | 1014.0 |
| 20260904034537 | 69 | 60 | 0.0 | 0.0 | 0.00 | 0.00 | 0.00 | 100 | 1013.8 |
| 20260904033034 | 69 | 60 | 0.0 | 0.0 | 0.00 | 0.00 | 0.00 | 100 | 1013.9 |
| 20260904031528 | 69 | 60 | 0.0 | 0.0 | 0.00 | 0.00 | 0.00 | 100 | 1013.8 |
| 20260904030034 | 69 | 134 | 1.0 | 2.0 | 0.00 | 0.00 | 0.00 | 100 | 1013.5 |
| 20260904024522 | 69 | 134 | 0.0 | 1.0 | 0.00 | 0.00 | 0.00 | 100 | 1013.2 |
| 20260904023014 | 69 | 134 | 0.0 | 0.0 | 0.00 | 0.00 | 0.00 | 100 | 1013.2 |
| 20260904021509 | 69 | 134 | 1.0 | 2.0 | 0.00 | 0.00 | 0.00 | 100 | 1012.9 |
| 20260904020006 | 69 | 134 | 2.0 | 4.0 | 0.00 | 0.00 | 0.00 | 100 | 1013.2 |
| 20260904014501 | 69 | 49 | 2.0 | 4.0 | 0.00 | 0.00 | 0.00 | 100 | 1013.3 |
| 20260904013120 | 69 | 244 | 1.0 | 6.0 | 0.00 | 0.00 | 0.00 | 100 | 1012.9 |
| 20260904011628 | 69 | 259 | 3.0 | 8.0 | 0.00 | 0.00 | 0.00 | 100 | 1012.7 |
| 20260904010049 | 70 | 239 | 2.0 | 8.0 | 0.00 | 0.00 | 0.00 | 100 | 1012.4 |
| 20260904004544 | 70 | 258 | 5.0 | 13.0 | 0.00 | 0.00 | 0.00 | 100 | 1012.5 |
| 20260904003041 | 70 | 257 | 3.0 | 10.0 | 0.00 | 0.00 | 0.00 | 100 | 1012.2 |
| 20260904001534 | 70 | 254 | 4.0 | 9.0 | 0.00 | 0.00 | 0.00 | 100 | 1012.5 |
| 20260904000032 | 71 | 246 | 4.0 | 11.0 | 0.00 | 0.00 | 0.00 | 100 | 1013.0 |
| 20260903234526 | 71 | 250 | 3.0 | 6.0 | 0.00 | 0.00 | 0.00 | 100 | 1013.5 |
| 20260903233033 | 71 | 184 | 1.0 | 8.0 | 0.00 | 0.00 | 0.00 | 100 | 1014.4 |